Regional Weather Roundup
Issued by NWS

Home | Current Version | Previous Version | Graphics & Text | Print | Product List | Glossary On
Versions: 1 2 3 4 5 6 7 8 9 10 11 12 13 14 15 16 17 18 19 20 21 22 23 24 25 26 27
000
ASUS45 KSLC 240110
RWRUT

UTAH REGIONAL WEATHER ROUNDUP
NATIONAL WEATHER SERVICE SALT LAKE CITY UT
700 PM MDT THU OCT 23 2014

UTZ001>011-023>025-240200-

NORTHERN UTAH

CITY           SKY/WX    TMP DP  RH WIND       PRES   REMARKS
BRIGHAM CITY   CLOUDY    61  35  38 CALM      30.06F
HILL AFB       CLOUDY    62  38  40 N1        30.07F
LOGAN          CLEAR     58  37  45 NE3       30.07S
OGDEN          CLOUDY    59  36  42 CALM      30.06S
PROVO AIRPORT  MOCLDY    61  37  41 CALM      30.08S
SALT LAKE CITY CLOUDY    58  40  51 CALM      30.06S
VERNAL         PTCLDY    54  39  57 W6        30.17R
WENDOVER       CLOUDY    57  30  35 W5        30.05S
HEBER CITY     MOCLDY    52  30  43 NE3       30.14R
WEST JORDAN    CLEAR     59  39  47 CALM      30.08S

$$

UTZ012>022-026-027-240200-

SOUTHERN/CENTRAL UTAH

CITY           SKY/WX    TMP DP  RH WIND       PRES   REMARKS
BLANDING       MOCLDY    62  32  31 CALM      30.32R
BRYCE CANYON   PTCLDY    48  28  46 S7        30.33R
CEDAR CITY     MOCLDY    62  28  27 SW8       30.17S
DELTA          CLOUDY    69  25  19 S10       30.09S
HANKSVILLE       N/A     68  30  24 E7        30.14S
MILFORD        CLOUDY    63  30  28 SE8       30.13R
MOAB/CYNLANDS  CLEAR     64  35  34 N7        30.12R
PRICE          MOCLDY    60  33  36 NE6       30.21R
ST GEORGE      MOCLDY    73  32  21 S5        30.07S

$$

REGIONAL REPORTS     COLORADO/ARIZONA

CITY           SKY/WX    TMP DP  RH WIND       PRES   REMARKS
CRAIG, CO      CLEAR     56  33  42 SW5       30.19R
GRAND JUNCTION CLEAR     61  38  42 CALM      30.18R
RIFLE          CLEAR     56  41  57 S7        30.21R
MONTROSE       CLEAR     61  38  42 S3        30.24R
CORTEZ         CLEAR     54  34  46 NE5       30.27R
PAGE, AZ       MOCLDY    68  35  29 S3        30.15R
GRAND CANYON   MOCLDY    55  33  43 CALM      30.30R
KINGMAN        CLEAR     71  38  29 SW7       30.09R
FLAGSTAFF      MOCLDY    56  34  43 CALM      30.33R

$$

REGIONAL REPORTS    NEVADA/IDAHO/WYOMING

CITY           SKY/WX    TMP DP  RH WIND       PRES   REMARKS
LAS VEGAS, NV  PTCLDY    83  37  19 CALM      29.95S
ELY            CLOUDY    62  23  22 S15       30.17R
ELKO           CLOUDY    63  22  20 SW3       30.04R
POCATELLO, ID  CLEAR     55  35  47 SW5       30.08R
BURLEY         CLOUDY    53  39  59 CALM      30.07R
EVANSTON, WY   MOCLDY    53  25  33 SW9       30.19R
ROCK SPRINGS   CLEAR     57  25  29 W6        30.18R
KEMMERER       MOCLDY    50  23  34 W10       30.19R

$$



USA.gov is the U.S. government's official web portal to all federal, state and local government web resources and services.